Total_Precipitation_Accumulation
2.06 2.06 2.15 2.20 1.94 2.06 2.36 2.63 2.54 2.69 2.73 2.52 2.16 1.95 1.81 1.84 1.80 1.92 2.13 2.00 1.96 2.07 2.44 2.68 2.62 2.41 2.25 1.94 1.61 1.49 1.48 1.43 1.32 1.07 0.97 0.96 1.03 1.07 1.00 0.88 0.80 0.77 0.62
2.24 2.38 2.41 2.38 2.09 2.08 2.34 2.55 2.46 2.80 2.74 2.70 2.33 2.13 1.99 1.89 1.71 1.79 2.03 2.12 2.01 1.94 2.17 2.68 2.93 2.79 2.66 2.52 2.10 1.77 1.70 1.69 1.59 1.24 1.03 1.01 1.10 1.17 1.16 1.09 0.94 0.79 0.61
2.39 2.39 2.34 2.35 2.30 2.19 2.40 2.53 2.59 2.74 2.59 2.49 2.45 2.31 2.15 2.10 1.88 1.80 1.94 2.16 2.03 1.91 2.06 2.46 2.88 2.94 2.84 2.92 2.76 2.40 2.13 2.02 1.86 1.52 1.25 1.10 1.09 1.11 1.17 1.17 1.07 0.87 0.65
2.45 2.61 2.41 2.30 2.50 2.44 2.58 2.90 2.88 3.01 3.09 2.97 2.71 2.39 2.18 2.26 1.91 1.81 1.88 2.11 2.30 1.96 2.11 2.44 2.76 2.86 2.99 3.28 3.46 3.30 2.84 2.42 2.16 1.95 1.70 1.44 1.33 1.27 1.17 1.15 1.11 0.91 0.66
2.55 2.91 2.78 2.75 2.72 2.73 2.75 2.47 3.08 3.38 3.40 3.23 2.70 2.42 2.10 2.07 1.93 1.77 1.82 1.79 1.98 2.05 2.06 2.16 2.52 2.60 2.93 3.45 3.77 3.84 3.65 3.23 2.86 2.75 2.61 2.30 2.11 1.77 1.39 1.22 1.10 0.89 0.67
2.81 3.09 2.92 2.85 2.81 2.95 2.93 2.98 3.43 3.39 3.13 3.14 2.50 2.15 2.01 1.80 1.81 1.74 1.53 1.58 1.67 1.67 1.90 2.00 2.28 2.00 2.32 2.77 3.06 3.46 3.90 4.08 3.81 3.74 3.75 3.49 3.12 2.44 1.72 1.37 1.11 0.94 0.80
2.77 3.08 2.93 3.13 3.04 2.91 2.90 2.95 3.23 3.30 3.01 3.18 3.07 2.54 2.00 1.58 1.60 1.47 1.48 1.62 1.59 1.72 1.95 2.17 2.40 2.37 2.24 2.24 2.25 2.65 3.47 4.25 4.37 4.15 4.32 4.49 4.08 3.15 2.22 1.67 1.28 1.07 0.95
2.63 2.72 3.04 2.85 2.86 2.93 2.87 3.00 3.24 3.11 2.71 3.14 3.34 3.35 2.71 2.23 1.72 1.29 1.59 1.74 1.78 1.98 1.95 2.02 2.37 2.65 2.49 2.61 2.14 2.03 2.74 3.63 4.13 4.18 4.23 4.39 4.12 3.38 2.60 2.10 1.56 1.21 1.05
2.50 2.64 2.78 2.81 2.79 2.70 2.78 2.98 3.05 3.07 2.90 2.98 3.19 3.47 3.14 2.61 2.10 1.56 1.43 1.60 1.89 2.09 1.99 2.03 2.08 2.31 2.31 2.74 2.87 2.41 2.28 2.51 3.11 3.92 4.34 4.21 3.71 3.08 2.58 2.37 2.07 1.60 1.24
2.41 2.47 2.54 2.61 2.63 2.50 2.58 2.44 2.56 2.97 3.08 2.83 2.93 2.88 2.85 2.81 2.64 2.10 1.63 1.49 1.59 1.72 1.89 1.78 1.76 2.00 2.21 2.54 2.72 2.45 2.21 2.09 2.32 3.19 3.75 3.81 3.48 2.94 2.57 2.51 2.70 2.42 1.81
2.24 2.08 2.16 2.40 2.44 2.32 2.26 2.28 2.50 2.63 2.65 2.63 2.72 2.78 2.86 2.87 2.56 2.34 1.93 1.64 1.50 1.33 1.46 1.56 1.65 1.72 1.89 2.35 2.70 2.34 2.16 1.93 1.96 2.38 2.80 3.07 3.14 2.88 2.55 2.51 2.85 3.05 2.73
1.99 1.84 1.91 2.13 2.17 2.17 2.14 2.12 2.20 2.32 2.38 2.42 2.51 2.57 2.71 2.69 2.59 2.61 2.15 1.79 1.60 1.19 1.18 1.31 1.40 1.50 1.65 1.97 2.02 2.03 1.83 1.73 1.75 1.82 1.92 2.27 2.63 2.77 2.71 2.71 2.94 3.20 3.28
1.79 1.76 1.80 1.88 1.89 1.94 1.94 2.03 2.09 2.15 2.30 2.38 2.37 2.42 2.50 2.47 2.47 2.52 2.37 1.96 1.73 1.27 1.25 1.29 1.31 1.50 1.50 1.79 2.05 1.90 1.64 1.57 1.50 1.45 1.44 1.54 1.78 2.08 2.25 2.39 2.65 2.97 3.20
1.69 1.71 1.65 1.62 1.66 1.70 1.72 2.01 2.05 2.17 2.31 2.38 2.27 2.53 2.49 2.32 2.42 2.46 2.49 2.58 2.30 1.88 1.71 1.51 1.36 1.32 1.42 1.63 1.87 1.87 1.53 1.46 1.31 1.21 1.16 1.21 1.31 1.44 1.58 1.79 2.03 2.24 2.38
1.61 1.61 1.61 1.70 1.66 1.67 1.76 1.94 1.99 2.04 2.22 2.26 2.26 2.46 2.45 2.33 2.33 2.41 2.61 2.81 2.89 2.54 2.24 2.03 1.71 1.38 1.40 1.49 1.66 1.51 1.42 1.36 1.22 1.09 1.00 0.99 1.05 1.13 1.21 1.32 1.48 1.60 1.67
1.47 1.47 1.49 1.56 1.61 1.61 1.68 1.87 1.91 1.98 2.09 2.10 2.16 2.26 2.31 2.25 2.30 2.34 2.55 2.69 2.79 2.80 2.40 2.10 1.91 1.50 1.43 1.29 1.47 1.31 1.29 1.41 1.30 1.18 1.07 0.96 0.93 0.98 1.03 1.13 1.26 1.35 1.40
1.43 1.42 1.45 1.54 1.59 1.63 1.72 1.82 1.78 1.88 1.89 1.88 1.87 2.00 2.12 2.29 2.25 2.08 2.20 2.33 2.45 2.63 2.35 2.10 2.01 1.82 1.78 1.66 1.62 1.56 1.41 1.38 1.25 1.20 1.13 1.07 1.02 0.99 1.00 1.04 1.11 1.20 1.28
1.37 1.40 1.48 1.56 1.54 1.60 1.76 1.83 1.78 1.82 1.84 1.81 1.86 2.01 2.01 2.08 2.16 2.08 2.05 2.06 2.23 2.46 2.42 2.25 2.28 2.22 2.06 1.93 1.89 1.79 1.47 1.34 1.33 1.24 1.08 0.99 0.95 0.93 0.92 0.96 1.05 1.12 1.20
1.37 1.41 1.40 1.43 1.46 1.53 1.65 1.69 1.73 1.78 1.85 1.90 1.90 1.86 1.79 1.92 2.07 2.23 2.25 2.16 2.18 2.32 2.49 2.40 2.34 2.43 2.22 2.04 2.16 2.00 1.79 1.79 1.42 1.34 1.19 1.01 0.95 0.91 0.89 0.89 0.94 1.01 1.09
1.36 1.42 1.43 1.47 1.48 1.52 1.54 1.58 1.61 1.58 1.59 1.60 1.63 1.66 1.65 1.68 1.84 2.23 2.28 2.33 2.33 2.34 2.49 2.49 2.48 2.53 2.56 2.36 2.38 2.18 2.05 1.92 1.68 1.39 1.34 1.13 1.06 1.04 0.99 0.92 0.92 1.00 1.12
1.28 1.38 1.43 1.40 1.42 1.43 1.33 1.38 1.39 1.31 1.38 1.34 1.30 1.31 1.31 1.39 1.45 1.61 1.69 1.97 2.20 2.29 2.33 2.43 2.46 2.53 2.55 2.65 2.41 2.25 2.21 2.15 2.01 1.75 1.69 1.35 1.20 1.13 1.05 1.00 0.96 1.02 1.16
1.33 1.40 1.44 1.39 1.36 1.21 1.28 1.33 1.31 1.27 1.27 1.24 1.17 1.16 1.14 1.19 1.25 1.26 1.25 1.41 1.68 1.94 2.22 2.43 2.48 2.50 2.55 2.66 2.65 2.50 2.40 2.27 2.17 1.95 1.95 1.84 1.68 1.66 1.45 1.15 1.12 1.10 1.16
1.31 1.36 1.40 1.48 1.46 1.45 1.45 1.42 1.34 1.21 1.17 1.15 1.14 1.17 1.02 0.98 1.06 1.01 1.12 1.17 1.25 1.42 1.57 1.94 2.19 2.22 2.34 2.47 2.68 2.63 2.59 2.53 2.40 2.27 2.29 2.27 2.14 2.05 1.67 1.48 1.43 1.16 1.09
1.30 1.34 1.36 1.43 1.49 1.43 1.47 1.37 1.27 1.11 1.13 1.18 1.16 1.18 1.14 1.10 1.11 1.14 1.20 1.15 1.08 1.12 1.20 1.29 1.40 1.60 1.84 2.17 2.45 2.58 2.71 2.74 2.73 2.62 2.61 2.67 2.47 2.36 2.07 1.74 1.50 1.24 1.08
1.37 1.34 1.41 1.49 1.54 1.55 1.52 1.34 1.23 1.10 1.14 1.19 1.14 1.14 1.18 1.12 1.15 1.08 1.10 1.13 1.10 1.06 1.09 1.18 1.15 1.27 1.40 1.61 1.91 2.11 2.30 2.51 2.75 2.84 2.78 2.82 2.71 2.58 2.61 2.41 1.92 1.60 1.31
1.67 1.62 1.53 1.54 1.56 1.62 1.60 1.37 1.26 1.15 1.23 1.31 1.35 1.33 1.30 1.20 1.14 1.07 1.01 1.08 1.09 1.06 1.12 1.12 1.08 1.06 1.08 1.19 1.41 1.57 1.74 2.00 2.25 2.49 2.38 2.43 2.55 2.75 2.97 2.82 2.41 1.99 1.63